contact:dominique.lefevre@mio.osupytheas.fr, maurice.libes@osupytheas.fr, didier.mallarino@osupytheas.fr
Project:EMSO http://www.emso-fr.org/EMSO-France
Depth: 2436.0 m
Title:EMSO Ligure Ouest : Data MII capteur MICROCAT
DateTime_Computer,Latitude,Longitude,Temperature,Conductivity,Pressure,DateTime_Instrument
DateTime_Computer,Latitude,Longitude,degC,S m-1,dbar,DateTime_Instrument
2020-10-24T00:02:29Z,42.805,6.029,13.2985,4.59988,2470.04,2020-10-24T02:03:24Z
2020-10-24T00:05:32Z,42.805,6.029,13.2983,4.59989,2469.993,2020-10-24T02:06:27Z
2020-10-24T00:18:08Z,42.805,6.029,13.2979,4.59988,2470.03,2020-10-24T02:19:03Z
2020-10-24T00:21:11Z,42.805,6.029,13.2985,4.59990,2470.03,2020-10-24T02:22:06Z
2020-10-24T00:24:14Z,42.805,6.029,13.2982,4.59988,2470.007,2020-10-24T02:25:09Z
2020-10-24T00:38:08Z,42.805,6.029,13.2979,4.59986,2470.077,2020-10-24T02:39:02Z
2020-10-24T00:41:11Z,42.805,6.029,13.2981,4.59987,2470.017,2020-10-24T02:42:06Z
2020-10-24T00:44:14Z,42.805,6.029,13.2979,4.59989,2470.03,2020-10-24T02:45:09Z
2020-10-24T00:47:17Z,42.805,6.029,13.2986,4.59988,2470.04,2020-10-24T02:48:12Z
2020-10-24T00:50:20Z,42.805,6.029,13.2979,4.59990,2470.053,2020-10-24T02:51:15Z
2020-10-24T02:03:08Z,42.805,6.029,13.2980,4.59986,2470.04,2020-10-24T04:04:03Z
2020-10-24T02:13:08Z,42.805,6.029,13.2982,4.59988,2470.053,2020-10-24T04:14:03Z
2020-10-24T02:16:11Z,42.805,6.029,13.2981,4.59985,2470.04,2020-10-24T04:17:06Z
2020-10-24T02:19:14Z,42.805,6.029,13.2982,4.59986,2470.04,2020-10-24T04:20:09Z
2020-10-24T02:22:17Z,42.805,6.029,13.2979,4.59988,2470.04,2020-10-24T04:23:12Z
2020-10-24T02:33:08Z,42.805,6.029,13.2985,4.59988,2470.063,2020-10-24T04:34:03Z
2020-10-24T02:36:11Z,42.805,6.029,13.2982,4.59993,2470.017,2020-10-24T04:37:06Z
2020-10-24T02:39:14Z,42.805,6.029,13.2980,4.59987,2470.053,2020-10-24T04:40:09Z
2020-10-24T02:42:17Z,42.805,6.029,13.2979,4.59987,2470.04,2020-10-24T04:43:12Z
2020-10-24T02:45:20Z,42.805,6.029,13.2982,4.59989,2470.04,2020-10-24T04:46:15Z
2020-10-24T02:48:24Z,42.805,6.029,13.2984,4.59986,2470.04,2020-10-24T04:49:18Z
2020-10-24T02:51:27Z,42.805,6.029,13.2985,4.59986,2470.03,2020-10-24T04:52:21Z
2020-10-24T02:54:30Z,42.805,6.029,13.2984,4.59991,2470.04,2020-10-24T04:55:25Z
2020-10-24T02:57:33Z,42.805,6.029,13.2979,4.59990,2470.04,2020-10-24T04:58:28Z
2020-10-24T03:00:36Z,42.805,6.029,13.2982,4.59991,2470.04,2020-10-24T05:01:31Z
2020-10-24T03:03:39Z,42.805,6.029,13.2984,4.59998,2470.053,2020-10-24T05:04:34Z
2020-10-24T03:06:42Z,42.805,6.029,13.2981,4.59988,2470.053,2020-10-24T05:07:37Z
2020-10-24T03:09:45Z,42.805,6.029,13.2987,4.59990,2470.053,2020-10-24T05:10:40Z
2020-10-24T03:12:49Z,42.805,6.029,13.2982,4.59990,2470.017,2020-10-24T05:13:43Z
2020-10-24T03:15:52Z,42.805,6.029,13.2982,4.59985,2470.053,2020-10-24T05:16:46Z
2020-10-24T03:18:55Z,42.805,6.029,13.2981,4.59991,2470.063,2020-10-24T05:19:50Z
2020-10-24T03:21:58Z,42.805,6.029,13.2984,4.59997,2469.993,2020-10-24T05:22:53Z
2020-10-24T03:25:01Z,42.805,6.029,13.2986,4.59990,2470.063,2020-10-24T05:25:56Z
2020-10-24T03:28:04Z,42.805,6.029,13.2982,4.59999,2470.063,2020-10-24T05:28:59Z
2020-10-24T03:31:07Z,42.805,6.029,13.2982,4.59999,2470.017,2020-10-24T05:32:02Z
2020-10-24T03:34:10Z,42.805,6.029,13.2983,4.59994,2470.063,2020-10-24T05:35:05Z
2020-10-24T03:37:13Z,42.805,6.029,13.2986,4.59990,2470.053,2020-10-24T05:38:08Z
2020-10-24T03:40:17Z,42.805,6.029,13.2985,4.59994,2470.04,2020-10-24T05:41:11Z
2020-10-24T03:43:20Z,42.805,6.029,13.2984,4.59991,2469.993,2020-10-24T05:44:14Z
2020-10-24T03:46:23Z,42.805,6.029,13.2982,4.59999,2470.063,2020-10-24T05:47:18Z
2020-10-24T03:49:26Z,42.805,6.029,13.2983,4.59989,2470.087,2020-10-24T05:50:21Z
2020-10-24T03:52:29Z,42.805,6.029,13.2983,4.59989,2470.017,2020-10-24T05:53:24Z
2020-10-24T03:55:32Z,42.805,6.029,13.2982,4.59998,2470.087,2020-10-24T05:56:27Z
2020-10-24T03:58:35Z,42.805,6.029,13.2982,4.59988,2470.053,2020-10-24T05:59:30Z
2020-10-24T04:01:38Z,42.805,6.029,13.2986,4.59999,2470.03,2020-10-24T06:02:33Z
2020-10-24T04:04:42Z,42.805,6.029,13.2981,4.59999,2470.04,2020-10-24T06:05:36Z
2020-10-24T04:07:45Z,42.805,6.029,13.2983,4.59991,2470.007,2020-10-24T06:08:39Z
2020-10-24T04:10:48Z,42.805,6.029,13.2986,4.59993,2470.04,2020-10-24T06:11:43Z
2020-10-24T04:13:51Z,42.805,6.029,13.2985,4.59989,2470.04,2020-10-24T06:14:46Z
2020-10-24T04:16:54Z,42.805,6.029,13.2982,4.59990,2470.04,2020-10-24T06:17:49Z
2020-10-24T04:19:57Z,42.805,6.029,13.2982,4.59990,2470.063,2020-10-24T06:20:52Z
2020-10-24T04:23:00Z,42.805,6.029,13.2986,4.59987,2470.04,2020-10-24T06:23:55Z
2020-10-24T04:26:03Z,42.805,6.029,13.2983,4.59986,2470.04,2020-10-24T06:26:58Z
2020-10-24T04:29:07Z,42.805,6.029,13.2982,4.59987,2470.04,2020-10-24T06:30:01Z
2020-10-24T04:32:10Z,42.805,6.029,13.2983,4.59990,2470.053,2020-10-24T06:33:04Z
2020-10-24T04:35:13Z,42.805,6.029,13.2982,4.59988,2470.017,2020-10-24T06:36:08Z
2020-10-24T04:38:16Z,42.805,6.029,13.2986,4.59988,2470.03,2020-10-24T06:39:11Z
2020-10-24T04:41:19Z,42.805,6.029,13.2984,4.59991,2470.04,2020-10-24T06:42:14Z
2020-10-24T04:44:22Z,42.805,6.029,13.2982,4.59989,2470.04,2020-10-24T06:45:17Z
2020-10-24T04:47:25Z,42.805,6.029,13.2979,4.59994,2470.053,2020-10-24T06:48:20Z
2020-10-24T04:50:28Z,42.805,6.029,13.2987,4.59989,2469.993,2020-10-24T06:51:23Z
2020-10-24T04:53:32Z,42.805,6.029,13.2985,4.59993,2470.017,2020-10-24T06:54:26Z
2020-10-24T04:56:35Z,42.805,6.029,13.2982,4.59987,2470.017,2020-10-24T06:57:29Z
2020-10-24T04:59:38Z,42.805,6.029,13.2982,4.59986,2470.053,2020-10-24T07:00:33Z
2020-10-24T05:02:41Z,42.805,6.029,13.2986,4.59994,2470.04,2020-10-24T07:03:36Z
2020-10-24T05:05:44Z,42.805,6.029,13.2982,4.59990,2470.007,2020-10-24T07:06:39Z
2020-10-24T05:08:47Z,42.805,6.029,13.2983,4.59996,2470.04,2020-10-24T07:09:42Z
2020-10-24T05:11:50Z,42.805,6.029,13.2990,4.59994,2470.04,2020-10-24T07:12:45Z
2020-10-24T05:14:53Z,42.805,6.029,13.2981,4.59991,2470.04,2020-10-24T07:15:48Z
2020-10-24T05:17:56Z,42.805,6.029,13.2985,4.59993,2470.053,2020-10-24T07:18:51Z
2020-10-24T05:21:00Z,42.805,6.029,13.2982,4.59991,2470.053,2020-10-24T07:21:54Z
2020-10-24T05:24:03Z,42.805,6.029,13.2987,4.59990,2470.026,2020-10-24T07:24:57Z
2020-10-24T05:27:06Z,42.805,6.029,13.2987,4.59995,2470.063,2020-10-24T07:28:01Z
2020-10-24T05:30:09Z,42.805,6.029,13.2985,4.59992,2470.017,2020-10-24T07:31:04Z
2020-10-24T05:33:12Z,42.805,6.029,13.2983,4.59994,2470.04,2020-10-24T07:34:07Z
2020-10-24T05:36:15Z,42.805,6.029,13.2986,4.59991,2470.077,2020-10-24T07:37:10Z
2020-10-24T05:39:18Z,42.805,6.029,13.2984,4.59991,2470.04,2020-10-24T07:40:13Z
2020-10-24T05:42:21Z,42.805,6.029,13.2986,4.59992,2470.017,2020-10-24T07:43:16Z
2020-10-24T05:45:25Z,42.805,6.029,13.2979,4.59991,2470.063,2020-10-24T07:46:19Z
2020-10-24T05:48:28Z,42.805,6.029,13.2987,4.59998,2470.017,2020-10-24T07:49:22Z
2020-10-24T05:51:31Z,42.805,6.029,13.2983,4.59988,2470.063,2020-10-24T07:52:26Z
2020-10-24T05:54:34Z,42.805,6.029,13.2989,4.59992,2470.03,2020-10-24T07:55:29Z
2020-10-24T05:57:37Z,42.805,6.029,13.2983,4.59988,2470.053,2020-10-24T07:58:32Z
2020-10-24T06:00:40Z,42.805,6.029,13.2989,4.59994,2469.993,2020-10-24T08:01:35Z
2020-10-24T06:03:43Z,42.805,6.029,13.2986,4.59994,2470.017,2020-10-24T08:04:38Z
2020-10-24T06:06:46Z,42.805,6.029,13.2984,4.59997,2470.04,2020-10-24T08:07:41Z
2020-10-24T06:09:50Z,42.805,6.029,13.2984,4.59990,2470.03,2020-10-24T08:10:44Z
2020-10-24T06:12:53Z,42.805,6.029,13.2987,4.59992,2470.03,2020-10-24T08:13:47Z
2020-10-24T06:15:56Z,42.805,6.029,13.2984,4.59991,2470.03,2020-10-24T08:16:51Z
2020-10-24T06:18:59Z,42.805,6.029,13.2979,4.59990,2469.993,2020-10-24T08:19:54Z
2020-10-24T06:22:02Z,42.805,6.029,13.2984,4.59991,2470.017,2020-10-24T08:22:57Z
2020-10-24T06:25:06Z,42.805,6.029,13.2982,4.59995,2470.03,2020-10-24T08:26:01Z
2020-10-24T06:28:09Z,42.805,6.029,13.2981,4.59994,2470.03,2020-10-24T08:29:04Z
2020-10-24T06:31:12Z,42.805,6.029,13.2982,4.59991,2470.04,2020-10-24T08:32:07Z
2020-10-24T06:34:15Z,42.805,6.029,13.2985,4.59997,2470.017,2020-10-24T08:35:10Z
2020-10-24T06:37:18Z,42.805,6.029,13.2983,4.60005,2470.03,2020-10-24T08:38:13Z
2020-10-24T06:40:21Z,42.805,6.029,13.2983,4.59996,2470.04,2020-10-24T08:41:16Z
2020-10-24T06:43:25Z,42.805,6.029,13.2983,4.59991,2470.04,2020-10-24T08:44:19Z
2020-10-24T06:46:28Z,42.805,6.029,13.2984,4.59993,2470.03,2020-10-24T08:47:22Z
2020-10-24T06:49:31Z,42.805,6.029,13.2979,4.59988,2469.993,2020-10-24T08:50:26Z
2020-10-24T06:52:34Z,42.805,6.029,13.2979,4.59988,2470.03,2020-10-24T08:53:29Z
2020-10-24T06:55:37Z,42.805,6.029,13.2982,4.59993,2470.03,2020-10-24T08:56:32Z
2020-10-24T06:58:40Z,42.805,6.029,13.2985,4.59988,2470.04,2020-10-24T08:59:35Z
2020-10-24T07:01:43Z,42.805,6.029,13.2985,4.59996,2470.053,2020-10-24T09:02:38Z
2020-10-24T07:04:46Z,42.805,6.029,13.2984,4.59994,2470.007,2020-10-24T09:05:41Z
2020-10-24T07:07:50Z,42.805,6.029,13.2988,4.59993,2470.04,2020-10-24T09:08:44Z
2020-10-24T07:10:53Z,42.805,6.029,13.2986,4.59996,2470.077,2020-10-24T09:11:47Z
2020-10-24T07:13:56Z,42.805,6.029,13.2990,4.59994,2470.077,2020-10-24T09:14:51Z
2020-10-24T07:16:59Z,42.805,6.029,13.2990,4.59993,2470.017,2020-10-24T09:17:54Z
2020-10-24T07:20:02Z,42.805,6.029,13.2986,4.59994,2470.017,2020-10-24T09:20:57Z
2020-10-24T07:23:05Z,42.805,6.029,13.2983,4.59990,2470.04,2020-10-24T09:24:00Z
2020-10-24T07:26:08Z,42.805,6.029,13.2982,4.59991,2470.04,2020-10-24T09:27:03Z
2020-10-24T07:29:11Z,42.805,6.029,13.2990,4.59999,2470.04,2020-10-24T09:30:06Z
2020-10-24T07:32:15Z,42.805,6.029,13.2981,4.59995,2470.03,2020-10-24T09:33:09Z
2020-10-24T07:35:18Z,42.805,6.029,13.2986,4.59999,2470.03,2020-10-24T09:36:12Z
2020-10-24T07:38:21Z,42.805,6.029,13.2982,4.59992,2470.03,2020-10-24T09:39:16Z
2020-10-24T07:41:24Z,42.805,6.029,13.2988,4.59996,2470.04,2020-10-24T09:42:19Z
2020-10-24T07:44:27Z,42.805,6.029,13.2983,4.59997,2470.04,2020-10-24T09:45:22Z
2020-10-24T07:47:30Z,42.805,6.029,13.2986,4.60000,2470.017,2020-10-24T09:48:25Z
2020-10-24T07:50:33Z,42.805,6.029,13.2986,4.59993,2470.04,2020-10-24T09:51:28Z
2020-10-24T07:53:36Z,42.805,6.029,13.2989,4.59991,2470.017,2020-10-24T09:54:31Z
2020-10-24T07:56:40Z,42.805,6.029,13.2989,4.59992,2469.993,2020-10-24T09:57:34Z
2020-10-24T07:59:43Z,42.805,6.029,13.2989,4.59996,2470.053,2020-10-24T10:00:37Z
2020-10-24T08:02:46Z,42.805,6.029,13.2986,4.60003,2470.017,2020-10-24T10:03:41Z
2020-10-24T08:05:49Z,42.805,6.029,13.2986,4.59991,2470.053,2020-10-24T10:06:44Z
2020-10-24T08:08:52Z,42.805,6.029,13.2985,4.59989,2470.04,2020-10-24T10:09:47Z
2020-10-24T08:11:55Z,42.805,6.029,13.2982,4.59991,2470.03,2020-10-24T10:12:50Z
2020-10-24T08:14:58Z,42.805,6.029,13.2986,4.59996,2470.063,2020-10-24T10:15:53Z
2020-10-24T08:18:01Z,42.805,6.029,13.2990,4.59994,2470.04,2020-10-24T10:18:56Z
2020-10-24T08:21:05Z,42.805,6.029,13.2984,4.59999,2470.03,2020-10-24T10:21:59Z
2020-10-24T08:24:08Z,42.805,6.029,13.2987,4.59994,2470.04,2020-10-24T10:25:02Z
2020-10-24T08:27:11Z,42.805,6.029,13.2984,4.59995,2470.04,2020-10-24T10:28:06Z
2020-10-24T08:30:14Z,42.805,6.029,13.2986,4.59991,2470.04,2020-10-24T10:31:09Z
2020-10-24T08:33:17Z,42.805,6.029,13.2981,4.59992,2470.04,2020-10-24T10:34:12Z
2020-10-24T08:36:20Z,42.805,6.029,13.2981,4.59990,2470.077,2020-10-24T10:37:15Z
2020-10-24T08:39:23Z,42.805,6.029,13.2991,4.60000,2470.053,2020-10-24T10:40:18Z
2020-10-24T08:42:26Z,42.805,6.029,13.2990,4.59996,2470.063,2020-10-24T10:43:21Z
2020-10-24T08:45:30Z,42.805,6.029,13.2982,4.59997,2470.087,2020-10-24T10:46:24Z
2020-10-24T08:48:33Z,42.805,6.029,13.2993,4.60012,2470.063,2020-10-24T10:49:27Z
2020-10-24T08:51:36Z,42.805,6.029,13.2994,4.60002,2470.077,2020-10-24T10:52:31Z
2020-10-24T08:54:39Z,42.805,6.029,13.2990,4.60002,2470.063,2020-10-24T10:55:34Z
2020-10-24T08:57:42Z,42.805,6.029,13.2984,4.59991,2470.04,2020-10-24T10:58:37Z
2020-10-24T09:00:45Z,42.805,6.029,13.2984,4.59991,2470.087,2020-10-24T11:01:40Z
2020-10-24T09:03:48Z,42.805,6.029,13.2984,4.59994,2470.063,2020-10-24T11:04:43Z
2020-10-24T09:06:51Z,42.805,6.029,13.2989,4.59991,2470.077,2020-10-24T11:07:46Z
2020-10-24T09:09:55Z,42.805,6.029,13.2979,4.60008,2470.1,2020-10-24T11:10:49Z
2020-10-24T09:12:58Z,42.805,6.029,13.2984,4.59994,2470.077,2020-10-24T11:13:53Z
2020-10-24T09:16:01Z,42.805,6.029,13.2980,4.59991,2470.1,2020-10-24T11:16:56Z
2020-10-24T09:19:04Z,42.805,6.029,13.2982,4.59989,2470.124,2020-10-24T11:19:59Z
2020-10-24T09:22:07Z,42.805,6.029,13.2988,4.59993,2470.053,2020-10-24T11:23:02Z
2020-10-24T09:25:10Z,42.805,6.029,13.2981,4.59993,2470.087,2020-10-24T11:26:05Z
2020-10-24T09:28:13Z,42.805,6.029,13.2986,4.60009,2470.04,2020-10-24T11:29:08Z
2020-10-24T09:31:16Z,42.805,6.029,13.2986,4.59994,2470.087,2020-10-24T11:32:11Z
2020-10-24T09:34:20Z,42.805,6.029,13.2989,4.59994,2470.087,2020-10-24T11:35:14Z
2020-10-24T09:37:23Z,42.805,6.029,13.2990,4.59996,2470.087,2020-10-24T11:38:18Z
2020-10-24T09:40:26Z,42.805,6.029,13.2983,4.59991,2470.063,2020-10-24T11:41:21Z
2020-10-24T09:43:29Z,42.805,6.029,13.2982,4.59990,2470.087,2020-10-24T11:44:24Z
2020-10-24T09:46:32Z,42.805,6.029,13.2987,4.60001,2470.063,2020-10-24T11:47:27Z
2020-10-24T09:49:35Z,42.805,6.029,13.2985,4.60003,2470.087,2020-10-24T11:50:30Z
2020-10-24T09:52:38Z,42.805,6.029,13.2983,4.59994,2470.1,2020-10-24T11:53:33Z
2020-10-24T09:55:42Z,42.805,6.029,13.2985,4.60011,2470.11,2020-10-24T11:56:36Z
2020-10-24T09:58:45Z,42.805,6.029,13.2983,4.59998,2470.087,2020-10-24T11:59:39Z
2020-10-24T10:01:48Z,42.805,6.029,13.2986,4.59997,2470.087,2020-10-24T12:02:43Z
2020-10-24T10:04:51Z,42.805,6.029,13.2986,4.59999,2470.087,2020-10-24T12:05:46Z
2020-10-24T10:07:54Z,42.805,6.029,13.2982,4.59990,2470.096,2020-10-24T12:08:49Z
2020-10-24T10:10:57Z,42.805,6.029,13.2987,4.59996,2470.1,2020-10-24T12:11:52Z
2020-10-24T10:14:00Z,42.805,6.029,13.2982,4.59991,2470.087,2020-10-24T12:14:55Z
2020-10-24T10:17:03Z,42.805,6.029,13.2987,4.60008,2470.124,2020-10-24T12:17:58Z
2020-10-24T10:20:07Z,42.805,6.029,13.2986,4.59996,2470.133,2020-10-24T12:21:01Z
2020-10-24T10:23:10Z,42.805,6.029,13.2988,4.59996,2470.133,2020-10-24T12:24:04Z
2020-10-24T10:26:13Z,42.805,6.029,13.2982,4.59999,2470.133,2020-10-24T12:27:08Z
2020-10-24T10:29:16Z,42.805,6.029,13.2988,4.59995,2470.087,2020-10-24T12:30:11Z
2020-10-24T10:32:19Z,42.805,6.029,13.2983,4.59991,2470.124,2020-10-24T12:33:14Z
2020-10-24T10:35:22Z,42.805,6.029,13.2987,4.59993,2470.147,2020-10-24T12:36:17Z
2020-10-24T10:38:25Z,42.805,6.029,13.2982,4.59999,2470.11,2020-10-24T12:39:20Z
2020-10-24T10:41:28Z,42.805,6.029,13.2986,4.59996,2470.156,2020-10-24T12:42:23Z
2020-10-24T10:44:32Z,42.805,6.029,13.2996,4.60007,2470.124,2020-10-24T12:45:26Z
2020-10-24T10:47:35Z,42.805,6.029,13.2991,4.59996,2470.11,2020-10-24T12:48:29Z
2020-10-24T10:50:38Z,42.805,6.029,13.2981,4.59991,2470.124,2020-10-24T12:51:33Z
2020-10-24T10:53:41Z,42.805,6.029,13.2985,4.60003,2470.133,2020-10-24T12:54:36Z
2020-10-24T10:56:44Z,42.805,6.029,13.2990,4.60005,2470.133,2020-10-24T12:57:39Z
2020-10-24T10:59:47Z,42.805,6.029,13.2984,4.59997,2470.147,2020-10-24T13:00:42Z
2020-10-24T11:02:50Z,42.805,6.029,13.2984,4.59991,2470.11,2020-10-24T13:03:45Z
2020-10-24T11:05:53Z,42.805,6.029,13.2987,4.59994,2470.11,2020-10-24T13:06:48Z
2020-10-24T11:08:57Z,42.805,6.029,13.2982,4.59998,2470.147,2020-10-24T13:09:51Z
2020-10-24T11:12:00Z,42.805,6.029,13.2987,4.59993,2470.147,2020-10-24T13:12:54Z
2020-10-24T11:15:03Z,42.805,6.029,13.2982,4.59999,2470.156,2020-10-24T13:15:58Z
2020-10-24T11:18:06Z,42.805,6.029,13.2986,4.59996,2470.156,2020-10-24T13:19:01Z
2020-10-24T11:21:09Z,42.805,6.029,13.2985,4.59999,2470.133,2020-10-24T13:22:04Z
2020-10-24T11:24:12Z,42.805,6.029,13.2981,4.60002,2470.156,2020-10-24T13:25:07Z
2020-10-24T11:27:15Z,42.805,6.029,13.2985,4.59990,2470.133,2020-10-24T13:28:10Z
2020-10-24T11:30:18Z,42.805,6.029,13.2986,4.59992,2470.147,2020-10-24T13:31:13Z
2020-10-24T11:33:22Z,42.805,6.029,13.2982,4.59990,2470.156,2020-10-24T13:34:16Z
2020-10-24T11:36:25Z,42.805,6.029,13.2989,4.59992,2470.171,2020-10-24T13:37:20Z
2020-10-24T11:39:28Z,42.805,6.029,13.2986,4.59992,2470.133,2020-10-24T13:40:23Z
2020-10-24T11:42:31Z,42.805,6.029,13.2990,4.59996,2470.156,2020-10-24T13:43:26Z
2020-10-24T11:45:34Z,42.805,6.029,13.2984,4.59993,2470.156,2020-10-24T13:46:29Z
2020-10-24T11:48:37Z,42.805,6.029,13.2984,4.59991,2470.147,2020-10-24T13:49:32Z
2020-10-24T11:51:40Z,42.805,6.029,13.2986,4.59999,2470.133,2020-10-24T13:52:35Z
2020-10-24T11:54:44Z,42.805,6.029,13.2982,4.59992,2470.156,2020-10-24T13:55:38Z
2020-10-24T11:57:47Z,42.805,6.029,13.2987,4.59993,2470.147,2020-10-24T13:58:41Z
2020-10-24T12:00:50Z,42.805,6.029,13.2990,4.59991,2470.18,2020-10-24T14:01:45Z
2020-10-24T12:03:53Z,42.805,6.029,13.2991,4.60011,2470.18,2020-10-24T14:04:48Z
2020-10-24T12:06:56Z,42.805,6.029,13.2984,4.59996,2470.171,2020-10-24T14:07:51Z
2020-10-24T12:09:59Z,42.805,6.029,13.2983,4.59992,2470.18,2020-10-24T14:10:54Z
2020-10-24T12:13:02Z,42.805,6.029,13.2985,4.60002,2470.203,2020-10-24T14:13:57Z
2020-10-24T12:16:05Z,42.805,6.029,13.2988,4.59993,2470.18,2020-10-24T14:17:00Z
2020-10-24T12:19:09Z,42.805,6.029,13.2983,4.59999,2470.217,2020-10-24T14:20:03Z
2020-10-24T12:22:12Z,42.805,6.029,13.2990,4.59991,2470.194,2020-10-24T14:23:06Z
2020-10-24T12:25:15Z,42.805,6.029,13.2986,4.59996,2470.171,2020-10-24T14:26:10Z
2020-10-24T12:28:18Z,42.805,6.029,13.2990,4.59993,2470.18,2020-10-24T14:29:13Z
2020-10-24T12:31:21Z,42.805,6.029,13.2985,4.60001,2470.171,2020-10-24T14:32:16Z
2020-10-24T12:34:24Z,42.805,6.029,13.2979,4.59991,2470.18,2020-10-24T14:35:19Z
2020-10-24T12:37:27Z,42.805,6.029,13.2989,4.59991,2470.171,2020-10-24T14:38:22Z
2020-10-24T12:40:30Z,42.805,6.029,13.2984,4.59996,2470.18,2020-10-24T14:41:25Z
2020-10-24T12:43:34Z,42.805,6.029,13.2988,4.59993,2470.24,2020-10-24T14:44:28Z
2020-10-24T12:46:37Z,42.805,6.029,13.2984,4.59993,2470.194,2020-10-24T14:47:31Z
2020-10-24T12:49:40Z,42.805,6.029,13.2988,4.59996,2470.227,2020-10-24T14:50:35Z
2020-10-24T12:52:43Z,42.805,6.029,13.2985,4.59990,2470.217,2020-10-24T14:53:38Z
2020-10-24T12:55:46Z,42.805,6.029,13.2987,4.59991,2470.203,2020-10-24T14:56:41Z
2020-10-24T12:58:49Z,42.805,6.029,13.2979,4.59989,2470.217,2020-10-24T14:59:44Z
2020-10-24T13:01:52Z,42.805,6.029,13.2986,4.59998,2470.227,2020-10-24T15:02:47Z
2020-10-24T13:04:55Z,42.805,6.029,13.2987,4.59991,2470.194,2020-10-24T15:05:50Z
2020-10-24T13:07:59Z,42.805,6.029,13.2990,4.59993,2470.227,2020-10-24T15:08:53Z
2020-10-24T13:11:02Z,42.805,6.029,13.2989,4.60000,2470.217,2020-10-24T15:11:56Z
2020-10-24T13:14:05Z,42.805,6.029,13.2980,4.59998,2470.194,2020-10-24T15:15:00Z
2020-10-24T13:17:08Z,42.805,6.029,13.2980,4.59991,2470.217,2020-10-24T15:18:03Z
2020-10-24T13:20:11Z,42.805,6.029,13.2987,4.59996,2470.25,2020-10-24T15:21:06Z
2020-10-24T13:23:14Z,42.805,6.029,13.2991,4.59997,2470.217,2020-10-24T15:24:09Z
2020-10-24T13:26:17Z,42.805,6.029,13.2984,4.60000,2470.24,2020-10-24T15:27:12Z
2020-10-24T13:29:20Z,42.805,6.029,13.2983,4.59993,2470.217,2020-10-24T15:30:15Z
2020-10-24T13:32:24Z,42.805,6.029,13.2983,4.59989,2470.227,2020-10-24T15:33:18Z
2020-10-24T13:35:27Z,42.805,6.029,13.2987,4.59991,2470.203,2020-10-24T15:36:21Z
2020-10-24T13:38:30Z,42.805,6.029,13.2984,4.59994,2470.18,2020-10-24T15:39:25Z
2020-10-24T13:41:33Z,42.805,6.029,13.2982,4.59990,2470.227,2020-10-24T15:42:28Z
2020-10-24T13:44:36Z,42.805,6.029,13.2987,4.59999,2470.217,2020-10-24T15:45:31Z
2020-10-24T13:47:39Z,42.805,6.029,13.2983,4.59991,2470.203,2020-10-24T15:48:34Z
2020-10-24T13:50:42Z,42.805,6.029,13.2983,4.60003,2470.25,2020-10-24T15:51:37Z
2020-10-24T13:53:45Z,42.805,6.029,13.2987,4.60001,2470.227,2020-10-24T15:54:40Z
2020-10-24T13:56:49Z,42.805,6.029,13.2986,4.59991,2470.227,2020-10-24T15:57:43Z
2020-10-24T13:59:52Z,42.805,6.029,13.2983,4.59993,2470.203,2020-10-24T16:00:46Z
2020-10-24T14:02:55Z,42.805,6.029,13.2982,4.59989,2470.227,2020-10-24T16:03:50Z
2020-10-24T14:05:58Z,42.805,6.029,13.2983,4.59992,2470.217,2020-10-24T16:06:53Z
2020-10-24T14:09:01Z,42.805,6.029,13.2985,4.60004,2470.203,2020-10-24T16:09:56Z
2020-10-24T14:12:04Z,42.805,6.029,13.2977,4.59998,2470.25,2020-10-24T16:12:59Z
2020-10-24T14:15:07Z,42.805,6.029,13.2983,4.60002,2470.227,2020-10-24T16:16:02Z
2020-10-24T14:18:10Z,42.805,6.029,13.2987,4.60004,2470.203,2020-10-24T16:19:05Z
2020-10-24T14:21:14Z,42.805,6.029,13.2982,4.59997,2470.24,2020-10-24T16:22:08Z
2020-10-24T14:24:17Z,42.805,6.029,13.2990,4.60001,2470.264,2020-10-24T16:25:11Z
2020-10-24T14:27:20Z,42.805,6.029,13.2984,4.59994,2470.227,2020-10-24T16:28:15Z
2020-10-24T14:30:23Z,42.805,6.029,13.2983,4.60001,2470.273,2020-10-24T16:31:18Z
2020-10-24T14:33:26Z,42.805,6.029,13.2986,4.59993,2470.24,2020-10-24T16:34:21Z
2020-10-24T14:36:29Z,42.805,6.029,13.2982,4.59992,2470.227,2020-10-24T16:37:24Z
2020-10-24T14:39:32Z,42.805,6.029,13.2982,4.59989,2470.217,2020-10-24T16:40:27Z
2020-10-24T14:42:35Z,42.805,6.029,13.2983,4.59992,2470.227,2020-10-24T16:43:30Z
2020-10-24T14:45:39Z,42.805,6.029,13.2983,4.59995,2470.203,2020-10-24T16:46:33Z
2020-10-24T14:48:42Z,42.805,6.029,13.2984,4.59989,2470.227,2020-10-24T16:49:37Z
2020-10-24T14:51:45Z,42.805,6.029,13.2986,4.59988,2470.203,2020-10-24T16:52:40Z
2020-10-24T14:54:48Z,42.805,6.029,13.2985,4.59993,2470.24,2020-10-24T16:55:43Z
2020-10-24T14:57:51Z,42.805,6.029,13.2985,4.59989,2470.217,2020-10-24T16:58:46Z
2020-10-24T15:00:54Z,42.805,6.029,13.2990,4.60000,2470.25,2020-10-24T17:01:49Z
2020-10-24T15:03:57Z,42.805,6.029,13.2986,4.59992,2470.297,2020-10-24T17:04:52Z
2020-10-24T15:07:01Z,42.805,6.029,13.2982,4.59991,2470.264,2020-10-24T17:07:55Z
2020-10-24T15:10:04Z,42.805,6.029,13.2984,4.59995,2470.227,2020-10-24T17:10:58Z
2020-10-24T15:13:07Z,42.805,6.029,13.2979,4.59990,2470.273,2020-10-24T17:14:02Z
2020-10-24T15:16:10Z,42.805,6.029,13.2980,4.59992,2470.203,2020-10-24T17:17:05Z
2020-10-24T15:19:13Z,42.805,6.029,13.2982,4.59992,2470.25,2020-10-24T17:20:08Z
2020-10-24T15:22:16Z,42.805,6.029,13.2983,4.59990,2470.24,2020-10-24T17:23:11Z
2020-10-24T15:25:19Z,42.805,6.029,13.2991,4.60000,2470.24,2020-10-24T17:26:14Z
2020-10-24T15:28:22Z,42.805,6.029,13.2985,4.60002,2470.217,2020-10-24T17:29:17Z
2020-10-24T15:31:26Z,42.805,6.029,13.2987,4.60003,2470.203,2020-10-24T17:32:20Z
2020-10-24T15:34:29Z,42.805,6.029,13.2990,4.59995,2470.227,2020-10-24T17:35:23Z
2020-10-24T15:37:32Z,42.805,6.029,13.2983,4.59997,2470.25,2020-10-24T17:38:27Z
2020-10-24T15:40:35Z,42.805,6.029,13.2980,4.59996,2470.25,2020-10-24T17:41:30Z
2020-10-24T15:43:38Z,42.805,6.029,13.2985,4.59989,2470.203,2020-10-24T17:44:33Z
2020-10-24T15:46:41Z,42.805,6.029,13.2986,4.59993,2470.227,2020-10-24T17:47:36Z
2020-10-24T15:49:44Z,42.805,6.029,13.2984,4.60013,2470.227,2020-10-24T17:50:39Z
2020-10-24T15:52:47Z,42.805,6.029,13.2986,4.59996,2470.227,2020-10-24T17:53:42Z
2020-10-24T15:55:51Z,42.805,6.029,13.2983,4.59991,2470.25,2020-10-24T17:56:45Z
2020-10-24T15:58:54Z,42.805,6.029,13.2984,4.59991,2470.264,2020-10-24T17:59:48Z
2020-10-24T16:01:57Z,42.805,6.029,13.2982,4.59996,2470.25,2020-10-24T18:02:52Z
2020-10-24T16:05:00Z,42.805,6.029,13.2988,4.59996,2470.25,2020-10-24T18:05:55Z
2020-10-24T16:08:03Z,42.805,6.029,13.2990,4.60000,2470.227,2020-10-24T18:08:58Z
2020-10-24T16:11:06Z,42.805,6.029,13.2980,4.59993,2470.203,2020-10-24T18:12:01Z
2020-10-24T16:14:09Z,42.805,6.029,13.2982,4.59990,2470.227,2020-10-24T18:15:04Z
2020-10-24T16:17:12Z,42.805,6.029,13.2979,4.60000,2470.24,2020-10-24T18:18:07Z
2020-10-24T16:20:16Z,42.805,6.029,13.2982,4.59994,2470.227,2020-10-24T18:21:10Z
2020-10-24T16:23:19Z,42.805,6.029,13.2985,4.59994,2470.217,2020-10-24T18:24:13Z
2020-10-24T16:26:22Z,42.805,6.029,13.2985,4.59998,2470.227,2020-10-24T18:27:17Z
2020-10-24T16:29:25Z,42.805,6.029,13.2985,4.60009,2470.227,2020-10-24T18:30:20Z
2020-10-24T16:32:28Z,42.805,6.029,13.2983,4.59991,2470.24,2020-10-24T18:33:23Z
2020-10-24T16:35:31Z,42.805,6.029,13.2983,4.59990,2470.227,2020-10-24T18:36:26Z
2020-10-24T16:38:34Z,42.805,6.029,13.2992,4.60004,2470.24,2020-10-24T18:39:29Z
2020-10-24T16:41:38Z,42.805,6.029,13.2981,4.59996,2470.25,2020-10-24T18:42:32Z
2020-10-24T16:44:41Z,42.805,6.029,13.2979,4.59995,2470.194,2020-10-24T18:45:35Z
2020-10-24T16:47:44Z,42.805,6.029,13.2988,4.59994,2470.203,2020-10-24T18:48:39Z